GFSSW_700_spd_000.txt.gz
Wind_Speed
19 20 19 18 17 18 18 19 20 20 20 19 18 16 15 13 12 13 13 10 9 8 9 10 10 11 13 12 12 12 11 6 8 9 11 19 16 12 16 19 20 22 16 4 8
19 19 19 18 18 19 18 19 20 20 20 19 18 16 14 13 13 14 12 11 10 10 10 11 11 11 13 12 12 12 12 6 6 11 13 20 17 14 15 20 17 19 17 14 11
18 19 19 18 18 19 18 19 20 20 20 18 17 15 14 13 13 12 13 13 12 11 10 10 9 10 12 13 13 13 11 14 15 19 17 18 14 16 14 19 18 20 20 18 16
17 18 18 19 19 19 19 18 18 19 18 17 16 14 13 12 12 13 14 14 13 13 11 10 10 10 11 11 15 15 16 19 17 17 19 19 17 19 16 17 20 22 21 21 20
18 18 18 18 19 19 19 18 17 16 15 14 13 13 13 13 15 8 14 14 13 13 12 11 10 10 9 9 14 13 20 17 20 17 18 19 23 21 21 21 19 16 18 23 23
18 18 18 17 17 16 16 15 14 14 12 12 12 12 13 15 13 12 12 14 13 14 13 13 14 14 12 15 11 11 20 18 19 18 19 20 22 23 21 20 23 22 23 24 25
16 16 17 17 16 14 13 12 12 11 11 11 11 12 14 14 13 14 13 14 13 14 15 14 13 12 15 14 14 16 18 19 20 19 19 18 26 26 23 21 24 24 25 26 26
17 15 14 13 13 12 10 9 9 8 8 9 10 11 14 14 13 12 14 15 14 14 14 14 14 15 14 16 13 12 12 16 18 16 18 18 26 14 20 20 23 24 27 27 25
16 15 14 12 10 8 7 6 5 6 7 8 9 11 14 14 14 13 14 15 14 15 14 14 14 16 16 14 11 11 12 17 16 19 19 23 22 14 27 20 22 27 28 29 26
13 12 11 10 8 6 4 3 2 4 6 8 10 9 14 12 14 14 14 15 15 15 16 15 15 16 17 18 14 13 18 14 20 21 20 23 22 21 26 27 24 25 28 30 29
12 11 10 7 5 3 1 2 3 7 8 11 9 14 12 11 13 15 15 16 16 17 17 15 17 21 18 18 18 16 15 9 12 18 21 27 30 28 29 32 31 29 31 31 30
10 9 7 7 5 3 1 1 2 6 9 11 14 16 15 17 13 15 16 16 17 18 14 15 22 15 12 18 19 20 19 17 13 21 22 28 33 32 30 33 27 24 27 31 31
7 5 4 4 3 2 1 2 3 9 15 16 16 18 19 17 18 17 16 18 19 18 16 22 11 12 21 22 23 24 22 17 16 15 21 26 35 25 18 27 30 24 24 28 30
7 6 5 4 3 3 3 4 7 12 13 13 12 17 20 21 21 21 18 21 22 19 17 20 21 21 22 24 23 22 18 18 20 16 12 8 12 23 14 24 21 20 20 19 23
4 4 4 5 6 5 7 7 8 10 5 6 11 14 15 19 22 17 21 24 23 20 19 16 18 23 26 25 19 22 17 18 17 16 18 25 16 20 6 16 17 20 19 14 19
9 8 8 7 8 8 8 7 7 4 8 7 10 11 15 19 22 24 18 25 26 25 24 27 19 21 23 18 20 20 19 19 19 16 12 25 25 29 18 18 11 17 16 19 18
16 15 13 12 11 11 9 8 4 7 6 10 14 17 17 16 21 26 26 27 29 23 32 30 33 33 26 27 27 30 20 5 6 6 8 14 24 35 7 13 12 22 26 23 22
22 21 20 19 16 15 13 9 10 8 13 18 20 22 18 17 23 21 27 31 33 33 24 19 17 33 36 42 35 36 33 16 6 7 12 13 10 16 17 15 18 28 29 26 22
25 26 25 24 22 19 17 17 11 2 9 13 16 18 20 20 21 19 31 33 32 34 32 20 32 27 38 26 28 25 31 33 28 32 17 24 29 27 24 36 27 21 24 25 14
29 29 28 31 26 25 25 33 20 13 18 18 18 14 21 19 23 24 24 22 28 37 36 36 34 26 33 31 27 34 13 16 21 5 8 14 23 19 19 20 24 23 24 18 15
31 28 28 28 25 25 35 37 30 26 20 23 24 28 31 31 32 28 30 24 19 24 32 41 35 17 32 39 40 36 41 23 24 25 4 10 13 23 27 16 18 18 20 19 18
30 25 22 21 26 27 28 27 24 29 28 34 28 28 31 35 36 37 37 31 29 20 28 35 24 35 45 41 31 43 43 49 26 18 30 36 37 27 20 26 30 28 25 26 22
30 29 27 21 22 19 24 27 28 30 29 33 37 29 24 30 35 33 41 39 27 33 31 32 31 36 34 26 33 36 40 39 46 36 39 26 30 24 26 23 31 29 25 23 27
32 27 21 24 22 19 20 22 23 22 31 25 28 29 32 39 42 49 47 35 36 35 34 37 36 35 36 43 30 34 40 46 45 41 51 45 50 43 33 27 28 28 32 36 34
30 16 21 21 19 20 22 28 33 31 25 27 36 33 32 38 40 38 31 38 44 32 30 31 44 50 51 44 35 37 38 40 52 60 47 52 50 53 43 43 45 37 33 29 33
26 29 29 30 31 33 32 33 27 28 26 29 29 31 34 35 34 39 44 49 37 42 42 28 29 41 45 50 51 50 51 43 41 44 54 51 61 48 37 27 29 25 23 28 35
31 34 36 39 35 31 28 23 26 28 30 29 31 34 37 33 35 37 40 47 46 49 46 53 44 37 38 44 47 46 56 53 48 41 42 47 65 48 48 44 43 45 45 45 43

GFSSW_700_spd_003.txt.gz
Wind_Speed
19 20 20 19 16 14 17 19 21 21 21 20 18 16 14 11 10 8 7 8 8 8 8 10 10 12 12 11 11 15 14 14 6 9 12 13 10 10 15 18 18 19 15 6 12
23 23 21 18 16 17 19 20 20 21 20 19 18 15 13 11 10 8 8 8 8 8 7 8 10 11 12 12 12 14 16 15 10 12 16 14 15 15 18 20 20 19 19 16 14
20 20 19 18 18 19 20 21 21 21 20 19 17 14 13 12 11 9 10 10 9 9 8 8 9 10 11 12 13 14 15 19 13 12 15 18 21 18 18 19 17 18 21 22 19
20 19 19 19 18 19 20 21 21 21 20 19 16 14 13 13 9 12 12 11 10 11 10 9 10 10 10 11 13 15 15 18 16 15 19 22 23 22 19 20 17 19 21 23 23
19 19 19 19 19 19 20 20 20 20 19 17 15 14 15 15 13 10 11 13 12 13 12 11 11 11 11 10 13 15 18 19 18 17 21 22 23 23 22 23 20 18 15 22 25
18 19 18 18 18 18 18 18 17 16 15 14 14 15 16 16 15 14 11 12 12 13 13 13 13 12 12 14 14 16 17 19 17 17 19 21 22 24 22 22 21 22 22 23 25
17 17 16 15 15 15 15 14 13 13 12 13 14 16 17 17 13 15 14 12 14 15 13 13 10 12 14 13 15 15 17 20 20 19 22 20 26 28 19 24 24 25 25 27 26
17 16 16 14 13 12 11 10 9 8 9 10 12 15 15 16 16 14 15 14 15 16 14 13 15 16 15 16 13 15 18 22 18 20 20 20 29 22 20 25 20 24 25 27 27
17 16 15 13 12 10 9 7 6 5 6 8 11 12 13 16 15 15 14 15 15 15 15 15 16 17 18 18 17 18 19 20 20 20 18 22 25 20 21 26 23 23 24 27 28
13 13 13 12 10 8 6 4 3 4 6 8 11 11 14 9 13 14 15 14 16 17 17 17 19 20 22 23 21 21 19 16 16 21 25 28 30 28 19 24 23 23 25 27 27
11 10 8 7 6 5 4 3 4 7 8 10 10 10 14 11 13 13 15 16 17 19 19 19 22 26 23 21 19 11 12 15 13 11 23 24 31 27 26 29 29 29 30 29 29
11 9 8 7 5 3 1 2 4 6 9 12 14 16 17 15 17 14 15 18 19 20 19 22 27 20 18 15 17 18 24 27 25 22 19 24 38 32 31 34 28 27 28 29 28
8 6 4 3 3 3 2 3 5 10 17 13 16 18 19 20 20 19 19 19 21 23 24 28 19 10 19 20 21 23 26 27 25 20 18 22 38 36 33 27 27 27 26 29 29
4 3 4 4 4 5 7 7 10 15 15 11 10 13 17 19 22 22 18 21 24 23 21 24 26 25 16 24 23 30 28 27 24 25 22 23 28 23 15 21 23 23 23 18 21
6 7 7 7 7 8 8 8 11 12 6 7 7 10 11 14 15 16 17 24 25 26 23 23 16 21 30 31 25 30 25 24 23 29 29 29 15 25 13 24 26 24 17 17 14
11 11 10 11 9 10 10 11 10 5 6 6 11 14 16 15 20 22 21 24 24 29 30 33 27 23 25 24 28 25 21 22 22 21 14 25 19 56 34 34 26 21 24 19 13
16 17 16 15 13 13 12 11 8 6 5 9 13 18 16 18 19 23 26 27 27 22 30 35 37 37 34 28 25 26 26 6 6 6 12 22 22 49 25 17 18 18 15 19 18
18 18 19 19 17 16 15 13 7 5 10 7 7 15 20 19 25 25 28 31 30 30 32 18 23 39 40 44 41 40 38 20 8 6 12 27 17 33 31 25 28 27 28 23 27
24 23 19 18 17 17 16 17 11 5 10 19 26 23 15 10 21 25 26 30 30 28 35 17 31 35 32 30 34 39 45 45 35 28 11 23 35 38 20 22 23 28 34 27 21
26 24 23 19 17 16 17 23 20 15 22 28 30 21 26 22 25 20 21 17 17 25 29 40 35 35 32 33 37 40 30 20 29 6 7 18 27 24 23 32 29 32 27 24 23
27 25 19 18 19 18 20 23 23 22 21 24 26 32 32 33 35 39 37 35 26 24 26 40 43 47 32 33 44 40 42 23 25 29 7 9 12 26 30 33 32 26 25 25 27
28 24 18 23 19 17 18 14 15 22 22 28 28 34 39 38 41 42 44 39 29 34 35 34 39 49 50 50 38 43 48 55 28 10 31 37 39 38 27 22 24 24 21 25 22
26 27 22 24 15 14 14 19 21 24 28 27 27 26 28 33 35 35 36 37 38 34 25 34 25 29 38 38 38 45 46 47 51 41 38 29 40 36 36 38 36 37 38 38 33
25 20 20 22 13 16 24 28 21 14 20 28 31 28 29 30 33 37 43 48 46 48 39 37 36 36 33 38 37 41 47 49 51 40 55 49 60 49 40 37 32 30 33 30 30
25 25 24 20 21 26 24 29 32 31 25 20 24 23 24 29 29 35 36 42 44 41 40 34 29 34 51 41 26 25 43 49 55 63 50 62 54 65 56 52 49 40 33 35 39
28 27 28 27 29 30 27 30 29 26 25 26 27 31 30 33 29 29 30 32 36 40 44 43 35 47 61 52 51 44 43 33 44 50 62 67 67 49 45 42 40 40 38 43 45
31 32 34 38 30 28 32 31 30 30 31 28 31 35 34 36 40 44 43 44 46 47 48 51 34 28 27 39 45 44 40 50 46 49 50 53 63 47 47 46 47 44 37 37 36

GFSSW_700_spd_006.txt.gz
Wind_Speed
21 22 20 19 17 14 17 21 22 23 22 20 18 15 14 12 9 7 7 7 8 8 10 12 13 13 13 14 17 21 23 24 20 13 14 13 12 11 15 19 20 17 13 11 13
24 23 22 20 17 16 20 21 22 23 22 20 17 15 13 11 9 7 7 7 8 9 9 10 12 12 14 15 16 19 22 22 21 14 14 15 17 15 16 18 22 20 15 16 17
25 24 21 19 17 19 20 21 23 23 21 19 17 15 13 11 9 9 8 8 9 10 10 9 11 11 13 15 16 18 21 21 22 20 13 14 17 18 20 23 19 18 19 19 20
21 20 19 19 19 20 21 23 23 23 21 19 17 16 14 12 10 12 11 11 11 11 11 11 10 11 13 15 17 18 18 19 23 20 19 20 21 25 24 19 18 19 21 22 21
18 17 18 18 19 20 22 23 24 23 22 20 18 17 15 13 15 10 11 15 14 13 12 12 11 13 13 14 17 20 18 19 19 22 23 25 26 26 25 21 19 21 22 22 23
16 17 17 18 18 19 21 21 21 21 20 19 18 17 16 15 15 16 14 11 14 14 13 13 14 14 15 17 17 17 19 20 22 22 23 24 24 28 25 23 21 22 21 23 25
14 15 15 15 16 16 17 17 18 17 17 17 17 18 17 18 16 17 17 15 14 15 15 15 14 16 17 14 18 18 18 19 23 20 22 22 28 31 25 24 24 25 25 24 26
14 13 13 13 13 13 13 14 14 14 14 15 16 17 16 19 18 18 16 17 16 15 16 16 17 18 18 17 15 17 21 25 23 20 23 24 34 24 22 26 26 24 26 27 27
15 14 13 12 11 10 9 8 8 8 8 10 11 12 15 18 16 17 17 16 16 17 17 19 19 20 22 21 21 23 23 23 22 21 23 26 29 22 19 20 24 26 28 28 28
11 11 10 10 9 9 8 7 7 7 9 9 11 10 14 10 13 17 17 17 17 19 20 21 23 25 27 27 28 27 27 27 26 22 20 26 31 22 23 24 24 24 26 31 32
11 9 8 6 4 3 2 2 4 7 9 12 9 11 12 12 12 14 15 17 20 21 23 23 27 32 29 25 25 26 23 23 22 17 27 29 31 30 22 28 30 30 31 32 33
9 8 7 6 5 3 1 2 4 6 8 13 16 17 19 18 17 17 17 19 22 23 22 27 33 25 24 24 25 26 27 31 31 28 30 31 40 38 33 36 35 31 31 32 32
5 5 4 3 3 3 4 6 7 10 14 13 17 19 18 20 20 18 19 20 22 25 27 32 26 21 26 27 29 31 32 31 30 25 31 33 47 44 44 41 36 35 32 33 36
5 5 4 4 4 5 7 9 12 15 15 7 5 7 11 16 21 19 21 21 23 23 25 26 28 31 23 25 26 37 30 26 27 30 30 20 31 37 35 39 34 26 25 25 24
8 8 8 8 8 9 9 10 11 14 5 6 6 7 8 9 13 14 13 21 25 25 24 24 19 22 32 37 29 35 28 27 28 32 36 36 17 26 18 25 25 25 26 27 20
9 9 10 10 12 12 12 13 12 5 5 6 8 10 11 12 15 19 21 21 24 27 30 36 33 25 28 26 26 32 30 29 32 31 16 38 23 59 42 40 32 15 21 28 30
11 10 10 10 11 11 12 11 7 6 3 5 9 15 19 18 20 20 22 24 25 22 29 31 33 35 37 32 29 31 30 9 7 6 13 21 23 51 28 22 29 33 26 19 20
13 11 12 12 12 12 10 9 7 6 7 14 14 16 21 23 23 16 19 23 23 29 36 32 32 26 29 38 42 40 39 24 8 7 15 22 21 43 42 34 27 20 21 22 18
16 12 10 10 12 12 11 10 4 5 8 16 24 29 18 8 14 19 20 22 20 19 33 22 33 31 26 25 31 42 40 46 41 26 8 21 34 41 40 34 33 32 25 30 29
18 16 18 11 10 10 12 13 11 9 20 22 26 14 21 20 24 26 21 18 23 14 19 34 38 28 21 30 36 41 35 23 26 7 11 19 24 32 23 23 27 30 31 32 31
22 20 11 14 17 14 10 10 15 17 21 19 19 27 31 33 31 30 29 30 34 30 26 28 26 51 41 35 36 35 45 36 30 32 13 16 23 42 34 23 21 22 27 29 30
22 19 14 19 15 12 8 13 18 19 20 25 29 28 31 29 36 34 33 28 36 37 33 32 25 35 38 32 34 40 44 45 37 31 22 36 49 50 40 33 28 30 27 27 29
20 16 15 18 12 12 12 14 21 22 19 18 21 24 31 33 29 22 24 25 27 35 29 26 24 25 34 40 35 24 29 40 48 49 41 30 48 49 46 42 32 29 26 25 28
20 15 17 16 11 20 26 25 22 22 26 27 31 34 36 35 31 28 31 25 22 23 33 35 21 20 22 16 20 34 35 31 26 28 41 48 63 67 58 49 44 43 43 44 41
24 22 19 17 20 21 25 26 28 30 27 23 28 27 31 37 40 35 33 42 43 39 28 30 33 36 43 51 49 47 45 52 50 49 29 51 49 59 62 59 52 50 48 50 43
25 24 24 22 23 21 21 26 26 27 27 31 31 30 30 33 34 39 39 39 41 44 42 46 48 38 38 48 43 43 36 45 48 52 53 41 48 45 56 54 55 55 48 38 36
28 29 29 28 25 25 25 25 26 27 31 27 32 36 33 29 29 32 34 35 39 42 45 45 46 42 38 46 35 31 34 31 36 37 34 34 31 40 36 36 43 45 43 42 40

GFSSW_700_spd_012.txt.gz
Wind_Speed
27 24 20 19 17 14 17 24 25 24 22 21 18 15 13 11 11 11 12 12 12 13 15 15 15 15 16 18 22 24 25 29 28 28 27 24 23 20 18 21 19 17 16 16 16
25 22 19 18 15 13 20 24 25 24 22 20 18 15 12 11 10 11 11 9 9 10 11 13 13 14 16 18 22 24 29 30 28 29 27 25 25 22 22 23 21 15 13 15 15
22 19 18 15 12 15 23 24 25 23 22 20 17 14 12 11 10 10 9 8 9 10 11 11 12 14 16 18 20 24 27 26 28 29 29 28 28 28 28 28 18 12 15 17 16
19 17 15 13 12 18 23 24 24 23 21 20 17 15 13 12 10 10 9 9 9 10 12 13 13 15 16 18 19 24 23 24 24 25 29 29 31 34 34 25 20 18 18 20 19
16 14 12 11 14 19 21 23 23 22 20 19 17 15 14 13 13 8 12 12 12 14 14 15 15 16 17 19 20 23 22 24 23 25 27 31 32 33 36 28 26 23 22 22 22
10 9 9 10 14 17 19 22 23 22 20 18 17 15 14 14 14 14 12 11 12 16 18 18 19 19 20 20 21 23 23 22 25 26 30 32 31 33 31 26 27 27 26 26 25
8 7 6 7 10 12 14 16 17 17 17 16 15 15 13 15 13 15 15 16 16 18 17 19 21 20 21 20 24 26 27 26 26 27 32 33 37 39 29 29 31 32 30 29 28
14 12 9 7 6 6 8 10 12 12 12 13 12 13 13 14 15 17 17 18 18 19 20 21 21 21 22 23 24 24 27 30 28 25 29 32 45 33 33 33 34 33 32 32 30
14 14 13 11 10 9 9 9 9 9 11 12 12 14 14 16 17 19 19 20 20 20 21 22 22 23 25 26 26 27 30 33 33 28 28 33 42 35 31 31 31 30 30 30 29
11 11 12 11 10 9 8 6 6 9 10 12 13 13 16 14 14 16 18 19 20 21 21 22 23 25 29 28 30 30 30 33 33 31 35 38 45 38 35 36 36 34 33 33 32
9 9 8 7 6 4 3 2 4 7 9 12 13 10 16 16 12 12 13 15 17 19 21 24 25 30 28 28 30 34 37 40 38 35 41 43 48 45 39 41 39 38 37 35 36
10 9 8 6 4 2 2 2 4 6 7 10 13 15 18 20 20 19 19 20 19 19 20 23 27 24 27 28 31 32 37 41 41 37 43 46 57 52 47 49 46 42 42 40 38
6 6 4 3 2 1 1 3 5 8 12 13 13 15 16 18 17 16 18 20 22 24 24 27 25 29 28 22 23 30 34 39 45 42 45 47 67 56 53 49 48 44 39 38 39
2 1 1 1 1 2 4 5 7 11 8 3 2 2 3 4 5 5 7 11 16 18 21 20 20 22 23 27 27 38 32 35 35 32 32 35 36 40 41 49 45 39 30 29 30
3 4 5 5 6 5 6 7 9 11 4 4 2 2 3 4 6 7 11 15 17 19 23 24 27 28 30 30 28 39 33 27 33 36 38 38 17 65 14 41 48 50 35 23 21
5 6 7 7 8 8 8 8 8 3 0 3 5 6 6 7 10 14 18 21 24 26 27 31 30 31 32 32 30 31 30 26 29 28 15 40 18 70 50 36 30 11 7 27 28
4 6 7 8 9 9 9 8 5 2 3 5 9 10 11 16 20 20 18 16 15 22 27 36 39 31 26 29 27 31 34 11 5 5 12 14 20 62 29 19 29 33 36 32 33
6 4 3 6 7 8 7 6 4 5 8 11 13 16 20 23 20 16 16 20 20 21 27 21 19 8 5 6 15 22 23 15 6 4 8 10 18 33 25 27 33 40 45 44 26
9 4 10 4 3 4 7 4 4 6 9 13 17 18 8 8 9 14 15 18 13 10 10 19 13 5 10 23 23 18 23 30 35 44 23 39 46 53 50 40 24 20 27 22 22
16 14 9 4 6 7 6 5 7 10 13 18 17 10 13 19 20 20 18 12 17 15 18 22 39 32 21 23 27 33 32 21 18 9 20 21 29 32 37 38 43 39 29 34 30
17 15 9 10 12 9 3 4 8 12 13 12 14 18 20 20 16 17 9 19 26 31 28 30 29 42 38 27 22 30 32 34 36 28 9 11 16 25 28 25 22 22 29 28 20
15 13 11 12 10 7 6 5 9 13 17 14 13 16 17 23 25 23 11 14 23 22 28 23 28 45 45 40 34 32 37 35 17 11 19 16 22 40 38 36 35 38 44 46 48
16 13 11 13 6 11 13 14 13 14 15 14 13 18 21 22 16 9 15 18 23 30 28 32 11 29 37 20 14 27 37 38 41 34 34 23 23 48 43 56 55 52 51 41 38
16 11 14 8 13 13 13 11 14 16 17 16 19 19 22 27 25 19 27 28 27 25 29 28 34 27 34 37 42 45 44 47 47 38 44 43 44 50 60 52 44 49 49 47 50
16 13 13 12 13 14 14 14 14 12 13 17 18 21 24 27 32 24 16 39 41 28 27 23 32 34 43 42 47 51 52 48 49 49 44 56 58 53 46 46 51 40 40 46 44
17 16 17 16 18 16 15 14 13 15 19 21 15 22 26 29 29 41 37 33 35 39 31 31 41 40 47 43 39 44 44 46 39 41 41 42 47 40 39 43 33 30 31 34 42
22 21 21 20 18 16 13 13 17 20 13 20 27 29 30 32 33 33 32 35 36 38 38 39 43 33 33 35 32 28 35 35 31 38 33 37 27 29 26 26 27 22 24 29 31